Time,TemperatureF,DewpointF,PressureIn,WindDirection,WindDirectionDegrees,WindSpeedMPH,WindSpeedGustMPH,Humidity,HourlyPrecipIn,Conditions,Clouds,dailyrainin,SoftwareType,DateUTC
2013-10-15 01:22:00,45.0,42.0,-100.00,SE,125,2.0,9.0,87,-99.99,,,-99.99,,2013-10-15 06:22:00,
2013-10-15 01:32:00,45.0,42.0,-100.00,SE,125,2.0,9.0,87,-99.99,,,-99.99,,2013-10-15 06:32:00,
2013-10-15 01:43:00,45.0,42.0,-100.00,SE,125,2.0,9.0,87,-99.99,,,-99.99,,2013-10-15 06:43:00,
2013-10-15 01:52:00,45.0,42.0,-100.00,SE,125,2.0,9.0,87,-99.99,,,-99.99,,2013-10-15 06:52:00,
2013-10-15 02:02:00,45.0,42.0,-100.00,SE,125,2.0,9.0,87,-99.99,,,-99.99,,2013-10-15 07:02:00,
2013-10-15 02:22:00,46.0,43.0,-100.00,SSE,155,3.0,11.0,88,-99.99,,,-99.99,,2013-10-15 07:22:00,
2013-10-15 02:32:00,46.0,43.0,-100.00,SSE,155,3.0,11.0,88,-99.99,,,-99.99,,2013-10-15 07:32:00,
2013-10-15 02:42:00,46.0,43.0,-100.00,SSE,155,3.0,11.0,88,-99.99,,,-99.99,,2013-10-15 07:42:00,
2013-10-15 02:53:00,46.0,43.0,-100.00,SSE,155,3.0,11.0,88,-99.99,,,-99.99,,2013-10-15 07:53:00,
2013-10-15 03:02:00,46.0,43.0,-100.00,SSE,155,3.0,11.0,88,-99.99,,,-99.99,,2013-10-15 08:02:00,
2013-10-15 03:22:00,47.0,43.0,-100.00,East,100,2.0,7.0,87,-99.99,,,-99.99,,2013-10-15 08:22:00,
2013-10-15 03:32:00,47.0,43.0,-100.00,East,100,2.0,7.0,87,-99.99,,,-99.99,,2013-10-15 08:32:00,
2013-10-15 03:42:00,47.0,43.0,-100.00,East,100,2.0,7.0,87,-99.99,,,-99.99,,2013-10-15 08:42:00,
2013-10-15 03:52:00,47.0,43.0,-100.00,East,100,2.0,7.0,87,-99.99,,,-99.99,,2013-10-15 08:52:00,
2013-10-15 04:03:00,47.0,44.0,-100.00,ENE,75,2.0,6.0,86,-99.99,,,-99.99,,2013-10-15 09:03:00,
2013-10-15 04:22:00,47.0,44.0,-100.00,ENE,75,2.0,6.0,86,-99.99,,,-99.99,,2013-10-15 09:22:00,
2013-10-15 04:33:00,47.0,44.0,-100.00,ENE,75,2.0,6.0,86,-99.99,,,-99.99,,2013-10-15 09:33:00,
2013-10-15 04:43:00,47.0,44.0,-100.00,ENE,75,2.0,6.0,86,-99.99,,,-99.99,,2013-10-15 09:43:00,
2013-10-15 04:53:00,47.0,44.0,-100.00,ENE,75,2.0,6.0,86,-99.99,,,-99.99,,2013-10-15 09:53:00,
2013-10-15 05:23:00,47.0,44.0,-100.00,South,180,0.0,6.0,87,-99.99,,,-99.99,,2013-10-15 10:23:00,
2013-10-15 05:32:00,47.0,44.0,-100.00,South,180,0.0,6.0,87,-99.99,,,-99.99,,2013-10-15 10:32:00,
2013-10-15 05:43:00,47.0,44.0,-100.00,South,180,0.0,6.0,87,-99.99,,,-99.99,,2013-10-15 10:43:00,
2013-10-15 05:53:00,47.0,44.0,-100.00,South,180,0.0,6.0,87,-99.99,,,-99.99,,2013-10-15 10:53:00,
2013-10-15 06:02:00,47.0,44.0,-100.00,South,180,0.0,6.0,87,-99.99,,,-99.99,,2013-10-15 11:02:00,
2013-10-15 06:22:00,48.0,45.0,-100.00,East,95,3.0,9.0,90,-99.99,,,-99.99,,2013-10-15 11:22:00,
2013-10-15 06:33:00,48.0,45.0,-100.00,East,95,3.0,9.0,90,-99.99,,,-99.99,,2013-10-15 11:33:00,
2013-10-15 06:42:00,48.0,45.0,-100.00,East,95,3.0,9.0,90,-99.99,,,-99.99,,2013-10-15 11:42:00,
2013-10-15 06:53:00,48.0,45.0,-100.00,East,95,3.0,9.0,90,-99.99,,,-99.99,,2013-10-15 11:53:00,
2013-10-15 07:01:00,48.0,45.0,-100.00,East,95,3.0,9.0,90,-99.99,,,-99.99,,2013-10-15 12:01:00,
2013-10-15 07:02:00,49.0,46.0,-100.00,SE,130,1.0,11.0,92,-99.99,,,-99.99,,2013-10-15 12:02:00,
2013-10-15 07:22:00,49.0,46.0,-100.00,SE,130,1.0,11.0,92,-99.99,,,-99.99,,2013-10-15 12:22:00,
2013-10-15 07:32:00,49.0,46.0,-100.00,SE,130,1.0,11.0,92,-99.99,,,-99.99,,2013-10-15 12:32:00,
2013-10-15 07:42:00,49.0,46.0,-100.00,SE,130,1.0,11.0,92,-99.99,,,-99.99,,2013-10-15 12:42:00,
2013-10-15 07:52:00,49.0,46.0,-100.00,SE,130,1.0,11.0,92,-99.99,,,-99.99,,2013-10-15 12:52:00,
2013-10-15 08:02:00,50.0,48.0,-100.00,ESE,115,4.0,8.0,93,-99.99,,,-99.99,,2013-10-15 13:02:00,
2013-10-15 08:22:00,50.0,48.0,-100.00,ESE,115,4.0,8.0,93,-99.99,,,-99.99,,2013-10-15 13:22:00,
2013-10-15 08:32:00,50.0,48.0,-100.00,ESE,115,4.0,8.0,93,-99.99,,,-99.99,,2013-10-15 13:32:00,
2013-10-15 08:42:00,50.0,48.0,-100.00,ESE,115,4.0,8.0,93,-99.99,,,-99.99,,2013-10-15 13:42:00,
2013-10-15 08:52:00,50.0,48.0,-100.00,ESE,115,4.0,8.0,93,-99.99,,,-99.99,,2013-10-15 13:52:00,
2013-10-15 09:42:00,50.0,48.0,-100.00,SE,135,3.0,11.0,93,-99.99,,,-99.99,,2013-10-15 14:42:00,
2013-10-15 09:52:00,50.0,48.0,-100.00,SE,135,3.0,11.0,93,-99.99,,,-99.99,,2013-10-15 14:52:00,
2013-10-15 10:01:00,50.0,48.0,-100.00,SE,135,3.0,11.0,93,-99.99,,,-99.99,,2013-10-15 15:01:00,
2013-10-15 10:22:00,51.0,49.0,-100.00,South,170,2.0,9.0,93,-99.99,,,-99.99,,2013-10-15 15:22:00,
2013-10-15 10:33:00,51.0,49.0,-100.00,South,170,2.0,9.0,93,-99.99,,,-99.99,,2013-10-15 15:33:00,
2013-10-15 10:44:00,51.0,49.0,-100.00,South,170,2.0,9.0,93,-99.99,,,-99.99,,2013-10-15 15:44:00,
2013-10-15 10:53:00,51.0,49.0,-100.00,South,170,2.0,9.0,93,-99.99,,,-99.99,,2013-10-15 15:53:00,
2013-10-15 11:02:00,52.0,50.0,-100.00,SE,135,2.0,9.0,93,-99.99,,,-99.99,,2013-10-15 16:02:00,
2013-10-15 11:03:00,51.0,49.0,-100.00,South,170,2.0,9.0,93,-99.99,,,-99.99,,2013-10-15 16:03:00,
2013-10-15 11:23:00,52.0,50.0,-100.00,SE,135,2.0,9.0,93,-99.99,,,-99.99,,2013-10-15 16:23:00,
2013-10-15 11:33:00,52.0,50.0,-100.00,SE,135,2.0,9.0,93,-99.99,,,-99.99,,2013-10-15 16:33:00,
2013-10-15 11:43:00,52.0,50.0,-100.00,SE,135,2.0,9.0,93,-99.99,,,-99.99,,2013-10-15 16:43:00,
2013-10-15 11:53:00,52.0,50.0,-100.00,SE,135,2.0,9.0,93,-99.99,,,-99.99,,2013-10-15 16:53:00,
2013-10-15 12:22:00,53.0,51.0,-100.00,SE,140,4.0,8.0,93,-99.99,,,-99.99,,2013-10-15 17:22:00,
2013-10-15 12:33:00,53.0,51.0,-100.00,SE,140,4.0,8.0,93,-99.99,,,-99.99,,2013-10-15 17:33:00,
2013-10-15 12:42:00,53.0,51.0,-100.00,SE,140,4.0,8.0,93,-99.99,,,-99.99,,2013-10-15 17:42:00,
2013-10-15 12:53:00,53.0,51.0,-100.00,SE,140,4.0,8.0,93,-99.99,,,-99.99,,2013-10-15 17:53:00,
2013-10-15 13:02:00,53.0,51.0,-100.00,SE,140,4.0,8.0,93,-99.99,,,-99.99,,2013-10-15 18:02:00,
2013-10-15 13:42:00,54.0,52.0,-100.00,SSE,160,2.0,7.0,93,-99.99,,,-99.99,,2013-10-15 18:42:00,
2013-10-15 13:52:00,54.0,52.0,-100.00,SSE,160,2.0,7.0,93,-99.99,,,-99.99,,2013-10-15 18:52:00,
2013-10-15 14:01:00,54.0,52.0,-100.00,SSE,160,2.0,7.0,93,-99.99,,,-99.99,,2013-10-15 19:01:00,
2013-10-15 14:03:00,54.0,52.0,-100.00,East,100,1.0,5.0,93,-99.99,,,-99.99,,2013-10-15 19:03:00,
2013-10-15 14:22:00,54.0,52.0,-100.00,East,100,1.0,5.0,93,-99.99,,,-99.99,,2013-10-15 19:22:00,
2013-10-15 14:32:00,54.0,52.0,-100.00,East,100,1.0,5.0,93,-99.99,,,-99.99,,2013-10-15 19:32:00,
2013-10-15 14:42:00,54.0,52.0,-100.00,East,100,1.0,5.0,93,-99.99,,,-99.99,,2013-10-15 19:42:00,
2013-10-15 14:52:00,54.0,52.0,-100.00,East,100,1.0,5.0,93,-99.99,,,-99.99,,2013-10-15 19:52:00,
2013-10-15 15:22:00,55.0,53.0,-100.00,South,190,1.0,4.0,93,-99.99,,,-99.99,,2013-10-15 20:22:00,
2013-10-15 15:32:00,55.0,53.0,-100.00,South,190,1.0,4.0,93,-99.99,,,-99.99,,2013-10-15 20:32:00,
2013-10-15 15:42:00,55.0,53.0,-100.00,South,190,1.0,4.0,93,-99.99,,,-99.99,,2013-10-15 20:42:00,
2013-10-15 15:52:00,55.0,53.0,-100.00,South,190,1.0,4.0,93,-99.99,,,-99.99,,2013-10-15 20:52:00,
2013-10-15 16:02:00,55.0,53.0,-100.00,South,190,1.0,4.0,93,-99.99,,,-99.99,,2013-10-15 21:02:00,
2013-10-15 16:22:00,56.0,54.0,-100.00,ESE,115,1.0,3.0,93,-99.99,,,-99.99,,2013-10-15 21:22:00,
2013-10-15 16:34:00,56.0,54.0,-100.00,ESE,115,1.0,3.0,93,-99.99,,,-99.99,,2013-10-15 21:34:00,
2013-10-15 16:44:00,56.0,54.0,-100.00,ESE,115,1.0,3.0,93,-99.99,,,-99.99,,2013-10-15 21:44:00,
2013-10-15 16:54:00,56.0,54.0,-100.00,ESE,115,1.0,3.0,93,-99.99,,,-99.99,,2013-10-15 21:54:00,
2013-10-15 17:03:00,57.0,53.0,-100.00,West,260,3.0,12.0,87,-99.99,,,-99.99,,2013-10-15 22:03:00,
2013-10-15 17:23:00,57.0,53.0,-100.00,West,260,3.0,12.0,87,-99.99,,,-99.99,,2013-10-15 22:23:00,
2013-10-15 17:33:00,57.0,53.0,-100.00,West,260,3.0,12.0,87,-99.99,,,-99.99,,2013-10-15 22:33:00,
2013-10-15 17:43:00,57.0,53.0,-100.00,West,260,3.0,12.0,87,-99.99,,,-99.99,,2013-10-15 22:43:00,
2013-10-15 17:53:00,57.0,53.0,-100.00,West,260,3.0,12.0,87,-99.99,,,-99.99,,2013-10-15 22:53:00,
2013-10-15 18:52:00,53.0,42.0,-100.00,WSW,255,4.0,17.0,65,-99.99,,,-99.99,,2013-10-15 23:52:00,
2013-10-15 19:01:00,53.0,42.0,-100.00,WSW,255,4.0,17.0,65,-99.99,,,-99.99,,2013-10-16 00:01:00,
2013-10-15 19:02:00,52.0,40.0,-100.00,WSW,250,6.0,15.0,64,-99.99,,,-99.99,,2013-10-16 00:02:00,
2013-10-15 19:42:00,52.0,40.0,-100.00,WSW,250,6.0,15.0,64,-99.99,,,-99.99,,2013-10-16 00:42:00,
2013-10-15 19:52:00,52.0,40.0,-100.00,WSW,250,6.0,15.0,64,-99.99,,,-99.99,,2013-10-16 00:52:00,
2013-10-15 20:02:00,51.0,39.0,-100.00,SW,215,4.0,10.0,64,-99.99,,,-99.99,,2013-10-16 01:02:00,
2013-10-15 20:22:00,51.0,39.0,-100.00,SW,215,4.0,10.0,64,-99.99,,,-99.99,,2013-10-16 01:22:00,
2013-10-15 20:32:00,51.0,39.0,-100.00,SW,215,4.0,10.0,64,-99.99,,,-99.99,,2013-10-16 01:32:00,
2013-10-15 20:42:00,51.0,39.0,-100.00,SW,215,4.0,10.0,64,-99.99,,,-99.99,,2013-10-16 01:42:00,
2013-10-15 20:52:00,51.0,39.0,-100.00,SW,215,4.0,10.0,64,-99.99,,,-99.99,,2013-10-16 01:52:00,
2013-10-15 21:02:00,49.0,40.0,-100.00,SW,220,4.0,10.0,72,-99.99,,,-99.99,,2013-10-16 02:02:00,
2013-10-15 21:22:00,49.0,40.0,-100.00,SW,220,4.0,10.0,72,-99.99,,,-99.99,,2013-10-16 02:22:00,
2013-10-15 21:32:00,49.0,40.0,-100.00,SW,220,4.0,10.0,72,-99.99,,,-99.99,,2013-10-16 02:32:00,
2013-10-15 21:42:00,49.0,40.0,-100.00,SW,220,4.0,10.0,72,-99.99,,,-99.99,,2013-10-16 02:42:00,
2013-10-15 21:52:00,49.0,40.0,-100.00,SW,220,4.0,10.0,72,-99.99,,,-99.99,,2013-10-16 02:52:00,
2013-10-15 22:03:00,48.0,43.0,-100.00,SSW,205,3.0,8.0,81,-99.99,,,-99.99,,2013-10-16 03:03:00,
2013-10-15 22:22:00,48.0,43.0,-100.00,SSW,205,3.0,8.0,81,-99.99,,,-99.99,,2013-10-16 03:22:00,
2013-10-15 22:34:00,48.0,43.0,-100.00,SSW,205,3.0,8.0,81,-99.99,,,-99.99,,2013-10-16 03:34:00,
2013-10-15 22:45:00,48.0,43.0,-100.00,SSW,205,3.0,8.0,81,-99.99,,,-99.99,,2013-10-16 03:45:00,
2013-10-15 22:55:00,48.0,43.0,-100.00,SSW,205,3.0,8.0,81,-99.99,,,-99.99,,2013-10-16 03:55:00,
2013-10-15 23:03:00,47.0,43.0,-100.00,SW,235,2.0,7.0,84,-99.99,,,-99.99,,2013-10-16 04:03:00,
2013-10-15 23:24:00,47.0,43.0,-100.00,SW,235,2.0,7.0,84,-99.99,,,-99.99,,2013-10-16 04:24:00,
2013-10-15 23:34:00,47.0,43.0,-100.00,SW,235,2.0,7.0,84,-99.99,,,-99.99,,2013-10-16 04:34:00,
2013-10-15 23:43:00,47.0,43.0,-100.00,SW,235,2.0,7.0,84,-99.99,,,-99.99,,2013-10-16 04:43:00,
2013-10-15 23:54:00,47.0,43.0,-100.00,SW,235,2.0,7.0,84,-99.99,,,-99.99,,2013-10-16 04:54:00,